Regional Weather Roundup
Issued by NWS

Home | Current Version | Previous Version | Graphics & Text | Print | Product List | Glossary Off
Versions: 1 2 3 4 5 6 7 8 9 10 11 12 13 14 15 16 17 18 19 20 21 22 23 24 25 26 27 28 29 30 31 32 33 34 35 36 37 38 39 40 41 42 43 44 45 46 47 48 49 50

000
ASUS43 KDMX 222106
RWRIA

WEATHER ROUNDUP FOR IOWA
NATIONAL WEATHER SERVICE DES MOINES IA
400 PM CDT SAT APR 22 2017

NOTE: "FAIR" INDICATES FEW OR NO CLOUDS BELOW 12,000 FEET WITH NO
SIGNIFICANT WEATHER AND/OR OBSTRUCTIONS TO VISIBILITY.

* - THESE STATIONS ARE NOT NWS STATIONS...THUS NOT UNDER NWS
QUALITY CONTROL.  THEY ALSO DO NOT REPORT WEATHER SUCH
AS PRECIPITATION OR FOG.

IAZ001>003-012>014-020>022-031>034-043>046-222200-
   NORTHWEST IOWA

CITY           SKY/WX    TMP DP  RH WIND       PRES   REMARKS
CARROLL *      SUNNY     64  28  25 NE8G14    30.19F
CHEROKEE *     SUNNY     65  33  30 NW5       30.20F
DENISON *      SUNNY     64  30  27 NE13      30.21F
LE MARS *      SUNNY     64  32  29 CALM      30.21F
ORANGE CITY *  SUNNY     64  36  34 CALM      30.21F
SHELDON *      SUNNY     66  32  28 VRB3G12   30.19F
SIOUX CITY     SUNNY     66  34  30 CALM      30.21F
SPENCER        SUNNY     67  33  28 NW3       30.20F
STORM LAKE *   SUNNY     64  32  29 NE8       30.20F
$$

IAZ055>058-069>071-079>083-090>094-222200-
   SOUTHWEST IOWA

CITY           SKY/WX    TMP DP  RH WIND       PRES   REMARKS
ATLANTIC *     SUNNY     64  32  29 NE9G17    30.18F
AUDUBON *      CLOUDY    66  21  18 NE12      30.20F
CLARINDA *     CLOUDY    66  32  28 NE14G28   30.19F
COUNCIL BLFS * SUNNY     64  32  29 NE14G21   30.19F
CRESTON *      CLOUDY    63  30  29 N14       30.19F
HARLAN  *      SUNNY     64  28  25 N8G21     30.23S
LAMONI         CLOUDY    62  32  32 NE15G25   30.16F
RED OAK *      MOSUNNY   64  34  32 NE9G20    30.18F
SHENANDOAH *   MOSUNNY   66  28  24 NE15G21   30.18F
$$

IAZ047>049-059>061-072>074-084-222200-
   CENTRAL IOWA

CITY           SKY/WX    TMP DP  RH WIND       PRES   REMARKS
AMES           SUNNY     66  32  28 MISG      30.18F
ANKENY *       SUNNY     66  27  22 VRB7G15   30.18F
BOONE *        SUNNY     64  32  29 VRB6G13   30.18F
CHARITON *     MOSUNNY   63  28  27 NE15G22   30.16F
DES MOINES     PTSUNNY   67  26  21 N10       30.17F
GRINNELL*      SUNNY     64  22  20 NE10G16   30.18F
KNOXVILLE *    SUNNY     64  21  19 E8G17     30.15F
MARSHALLTOWN   SUNNY     65  27  23 VRB6      30.17F
NEWTON *       SUNNY     64  28  25 NE10G20   30.16F
PELLA *        SUNNY     65  25  22 NE6G16    30.18S
PERRY *          N/A     66  24  20 N10       30.18F
$$

IAZ004>006-015-016-023>025-035-036-222200-
   NORTH CENTRAL IOWA

CITY           SKY/WX    TMP DP  RH WIND       PRES   REMARKS
ALGONA *       SUNNY     66  34  30 N7        30.19F
CLARION *      SUNNY     66  30  26 CALM      30.18F
ESTHERVILLE    SUNNY     65  34  31 VRB6      30.18F
FORT DODGE *   SUNNY     64  34  32 NW8       30.20F
MASON CITY     SUNNY     66  29  24 NE5       30.19F
FOREST CITY *    N/A     66  30  26 NW5       30.19F
WEBSTER CITY * SUNNY     66  30  26 N9        30.17F
IOWA FALLS *     N/A     65  30  26 CALM      30.19F
$$

IAZ007>011-017>019-026>030-037>042-050>054-066-222200-
   NORTHEAST IOWA

CITY           SKY/WX    TMP DP  RH WIND       PRES   REMARKS
CEDAR RAPIDS   SUNNY     64  28  25 E8        30.16F
CHARLES CITY * SUNNY     63  25  23 CALM      30.19F
CLINTON *      SUNNY     63  34  33 E9G20     30.16F
DECORAH *      SUNNY     63  28  27 N7        30.17F
DUBUQUE        SUNNY     62  31  31 NE7       30.18F
MONTICELLO *   SUNNY     63  28  27 NE8       30.17F
OELWEIN *      SUNNY     63  28  27 VRB6G13   30.18F
WATERLOO       SUNNY     65  29  25 VRB7      30.17F
$$

IAZ064-065-067-068-078-222200-
   EAST CENTRAL IOWA

CITY           SKY/WX    TMP DP  RH WIND       PRES   REMARKS
DAVENPORT      SUNNY     63  32  31 NE12      30.16F
IOWA CITY      SUNNY     65  29  25 E12G20    30.17F
MT. PLEASANT * SUNNY     64  31  29 NE12G17   30.14F
MUSCATINE *    SUNNY     64  30  27 NE8G20    30.15F
QUAD CITIES    SUNNY     65  35  33 NE8       30.15F
$$

IAZ062-063-075>077-085>089-095>099-222200-
   SOUTHEAST IOWA

CITY           SKY/WX    TMP DP  RH WIND       PRES   REMARKS
BURLINGTON     SUNNY     64  38  38 NE10G20   30.12F
FAIRFIELD *    CLOUDY    63  30  29 NE14G23   30.15S
FORT MADISON * SUNNY     66  37  34 N12G17    30.13F
KEOKUK *       SUNNY     63  34  34 NE9G21    30.11F
OSKALOOSA *      N/A     64  27  25 NE13G18   30.16F
CENTERVILLE *    N/A     63  28  27 NE13G18   30.16S
OTTUMWA        CLOUDY    65  27  23 NE17      30.15F
WASHINGTON *   SUNNY     64  30  27 NE17G25   30.16F
$$

ABBREVIATIONS USED IN REMARKS
   TC - TEMPERATURES IN CELSIUS
  WCI - WIND CHILL INDEX
   HX - HEAT INDEX
  VSB - VISIBILITY
$$





USA.gov is the U.S. government's official web portal to all federal, state and local government web resources and services.